Wilmington, DE

9:25 PM EST on November 15, 2019 (GMT -0500)
New Castle County

Weather History for KILG - October, 2019

Change the Weather History Date:

Monday, October 21, 2019

  Actual Average Record
Temperature  
Mean Temperature 61 °F 54 °F  
Max Temperature 70 °F 64 °F 85 °F (1947)
Min Temperature 51 °F 44 °F 25 °F (1974)
Degree Days  
Heating Degree Days 4 11  
Month to date heating degree days 107 166  
Since 1 July heating degree days 113 218  
Cooling Degree Days 0 0  
Month to date cooling degree days 46 15  
Year to date cooling degree days 1505 1142  
Growing Degree Days 11 (Base 50)    
Moisture  
Dew Point 51 °F    
Average Humidity 69    
Maximum Humidity 93    
Minimum Humidity 44    
Precipitation  
Precipitation 0.00 in 0.11 in 1.93 in (1904)
Month to date precipitation 2.67 2.40  
Year to date precipitation 39.27 35.48  
Snow  
Snow 0.00 in 0.00 in 0.00 in (1894)
Month to date snowfall 0.0 0.0  
Since 1 July snowfall 0.0 0.0  
Since 1 September snowfall 0.0 0.0  
Snow Depth 0.00 in    
Sea Level Pressure  
Sea Level Pressure 30.05 in    
Wind  
Wind Speed 8 mph (NNE)    
Max Wind Speed 14 mph    
Max Gust Speed 19 mph    
Visibility 10 miles    
Events      
T = Trace of Precipitation, MM = Missing Value Source: NWS Daily Summary

Daily Weather History Graph

Daily Weather History Graph

Search for Another Location

Airport or City:

Astronomy

Oct. 21, 2019 Rise Set
Actual Time 7:18 AM EDT 6:14 PM EDT
Civil Twilight 6:51 AM EDT 6:42 PM EDT
Nautical Twilight 6:19 AM EDT 7:13 PM EDT
Astronomical Twilight 5:48 AM EDT 7:44 PM EDT
Moon No Moon Rise 2:34 PM EDT (10/21)
Length of Visible Light 11h 51m
Length of Day
10h 56m
Waning Gibbous, 48% of the Moon is Illuminated
Oct 21
Waning Gibbous
Oct 27
New
Nov 4
First Quarter
Nov 12
Full
Nov 19
Last Quarter

Hourly Weather History & Observations

Time (EDT) Temp. Dew Point Humidity Pressure Visibility Wind Dir Wind Speed Gust Speed Precip Events Conditions
12:51 AM 55.0 °F 53.1 °F 93% 29.96 in 10.0 mi North 9.2 mph - 0.00 in   Overcast
1:51 AM 55.0 °F 53.1 °F 93% 29.97 in 10.0 mi North 11.5 mph - N/A   Overcast
2:51 AM 55.0 °F 53.1 °F 93% 29.98 in 10.0 mi North 9.2 mph - N/A   Overcast
3:51 AM 55.0 °F 52.0 °F 89% 29.98 in 10.0 mi North 6.9 mph - N/A   Overcast
4:17 AM 55.0 °F 52.0 °F 89% 29.99 in 10.0 mi North 10.4 mph - N/A   Overcast
4:51 AM 54.0 °F 51.1 °F 90% 30.01 in 10.0 mi North 12.7 mph - N/A   Overcast
5:11 AM 54.0 °F 51.1 °F 90% 30.01 in 10.0 mi North 11.5 mph - N/A   Overcast
5:18 AM 54.0 °F 50.0 °F 86% 30.02 in 10.0 mi North 11.5 mph - N/A   Overcast
5:51 AM 53.1 °F 50.0 °F 89% 30.03 in 10.0 mi North 9.2 mph - N/A   Overcast
6:07 AM 52.0 °F 50.0 °F 93% 30.04 in 10.0 mi NNW 8.1 mph - N/A   Scattered Clouds
6:15 AM 52.0 °F 48.9 °F 89% 30.04 in 10.0 mi North 9.2 mph - N/A   Partly Cloudy
6:51 AM 52.0 °F 48.9 °F 89% 30.05 in 10.0 mi North 8.1 mph - N/A   Clear
7:51 AM 52.0 °F 48.9 °F 89% 30.05 in 10.0 mi North 9.2 mph - N/A   Clear
8:51 AM 55.0 °F 48.9 °F 80% 30.08 in 10.0 mi North 9.2 mph - N/A   Clear
9:51 AM 59.0 °F 50.0 °F 72% 30.08 in 10.0 mi North 6.9 mph - N/A   Clear
10:51 AM 62.1 °F 48.9 °F 62% 30.09 in 10.0 mi North 6.9 mph - N/A   Clear
11:51 AM 66.0 °F 48.0 °F 52% 30.08 in 10.0 mi NNE 9.2 mph - N/A   Clear
12:51 PM 66.9 °F 48.0 °F 51% 30.06 in 10.0 mi NE 9.2 mph - N/A   Clear
1:51 PM 68.0 °F 48.0 °F 49% 30.06 in 10.0 mi NE 6.9 mph - N/A   Clear
3:51 PM 70.0 °F 46.0 °F 42% 30.06 in 10.0 mi ENE 9.2 mph - N/A   Clear
4:51 PM 68.0 °F 46.0 °F 45% 30.06 in 10.0 mi East 8.1 mph - N/A   Clear
5:51 PM 66.9 °F 48.9 °F 52% 30.06 in 10.0 mi East 3.5 mph - N/A   Clear
6:51 PM 62.1 °F 48.9 °F 62% 30.08 in 10.0 mi Calm Calm - N/A   Clear
7:51 PM 60.1 °F 53.1 °F 78% 30.10 in 10.0 mi SSE 8.1 mph - N/A   Scattered Clouds
8:51 PM 59.0 °F 55.0 °F 87% 30.11 in 10.0 mi SE 6.9 mph - N/A   Overcast
9:40 PM 60.1 °F 55.9 °F 86% 30.10 in 10.0 mi SE 8.1 mph - N/A   Overcast
10:51 PM 59.0 °F 55.9 °F 90% 30.12 in 10.0 mi SE 5.8 mph - N/A   Overcast
11:51 PM 60.1 °F 55.0 °F 83% 30.12 in 10.0 mi ESE 8.1 mph - N/A   Overcast